E22FEY-1 Weather Reports


time (UTC)temp
F
wind
direction
speed
knots
gust
knots
rain 1hr
in
rain 24hr
in
rain mn
in
humidity
%
barometer
mb
20260509161002 87 0 0.0 0.0 0.00 0.00 0.00 69 1009.0
20260509155438 90 0 0.0 0.0 0.00 0.00 0.00 66 1009.0
20260509153913 90 0 0.0 0.0 0.00 0.00 0.00 66 1009.0
20260509152349 90 0 0.0 0.0 0.00 0.00 0.00 66 1009.0
20260509150825 90 0 0.0 0.0 0.00 0.00 0.00 64 1008.0
20260509145259 89 0 0.0 0.0 0.00 0.00 0.00 63 1008.0
20260509143735 89 0 0.0 0.0 0.00 0.00 0.00 63 1008.0
20260509142209 88 0 0.0 0.0 0.00 0.00 0.00 62 1008.0
20260509140644 89 0 0.0 0.0 0.00 0.00 0.00 60 1007.0
20260509135120 91 0 0.0 0.0 0.00 0.00 0.00 59 1007.0
20260509133556 91 0 0.0 0.0 0.00 0.00 0.00 60 1007.0
20260509132030 91 0 0.0 0.0 0.00 0.00 0.00 62 1007.0
20260509130503 88 0 0.0 0.0 0.00 0.00 0.00 67 1008.0
20260509124935 89 0 0.0 0.0 0.00 0.00 0.00 67 1007.0
20260509124813 92 0 0.0 0.0 0.00 0.00 0.00 60 1007.0
20260509124623 93 0 0.0 0.0 0.00 0.00 0.00 58 1007.0
20260509124435 96 0 0.0 0.0 0.00 0.00 0.00 53 1007.0
20260509124245 99 0 0.0 0.0 0.00 0.00 0.00 50 1006.0
20260509124053 100 0 0.0 0.0 0.00 0.00 0.00 49 1006.0
20260509123902 100 0 0.0 0.0 0.00 0.00 0.00 49 1006.0
20260509123712 99 0 0.0 0.0 0.00 0.00 0.00 49 1006.0
20260509123523 99 0 0.0 0.0 0.00 0.00 0.00 49 1006.0
20260509123331 100 0 0.0 0.0 0.00 0.00 0.00 48 1006.0
20260509123141 99 0 0.0 0.0 0.00 0.00 0.00 49 1006.0
20260509122951 99 0 0.0 0.0 0.00 0.00 0.00 49 1006.0
20260509122801 101 0 0.0 0.0 0.00 0.00 0.00 48 1006.0
20260509122612 99 0 0.0 0.0 0.00 0.00 0.00 50 1006.0
20260509122421 99 0 0.0 0.0 0.00 0.00 0.00 49 1006.0
20260509122231 99 0 0.0 0.0 0.00 0.00 0.00 50 1006.0
20260509122042 100 0 0.0 0.0 0.00 0.00 0.00 49 1006.0
20260509121853 100 0 0.0 0.0 0.00 0.00 0.00 49 1006.0
20260509121701 100 0 0.0 0.0 0.00 0.00 0.00 49 1006.0
20260509121510 101 0 0.0 0.0 0.00 0.00 0.00 47 1006.0
20260509121321 101 0 0.0 0.0 0.00 0.00 0.00 47 1006.0
20260509121131 101 0 0.0 0.0 0.00 0.00 0.00 48 1006.0
20260509120941 100 0 0.0 0.0 0.00 0.00 0.00 48 1006.0
20260509120750 99 0 0.0 0.0 0.00 0.00 0.00 49 1006.0
20260509120408 100 0 0.0 0.0 0.00 0.00 0.00 48 1006.0
20260509120219 100 0 0.0 0.0 0.00 0.00 0.00 48 1006.0
20260509120029 101 0 0.0 0.0 0.00 0.00 0.00 46 1006.0
20260509115837 100 0 0.0 0.0 0.00 0.00 0.00 48 1006.0
20260509115647 100 0 0.0 0.0 0.00 0.00 0.00 48 1006.0
20260509115457 101 0 0.0 0.0 0.00 0.00 0.00 47 1006.0
20260509115308 100 0 0.0 0.0 0.00 0.00 0.00 48 1006.0
20260509115117 100 0 0.0 0.0 0.00 0.00 0.00 48 1006.0
20260509114926 101 0 0.0 0.0 0.00 0.00 0.00 47 1005.0
20260509114736 100 0 0.0 0.0 0.00 0.00 0.00 48 1005.0
20260509114547 100 0 0.0 0.0 0.00 0.00 0.00 48 1005.0
20260509114357 99 0 0.0 0.0 0.00 0.00 0.00 48 1005.0
20260509114208 101 0 0.0 0.0 0.00 0.00 0.00 47 1005.0
20260509114019 100 0 0.0 0.0 0.00 0.00 0.00 48 1005.0
20260509113829 100 0 0.0 0.0 0.00 0.00 0.00 47 1005.0
20260509113639 100 0 0.0 0.0 0.00 0.00 0.00 48 1005.0
20260509113449 101 0 0.0 0.0 0.00 0.00 0.00 46 1005.0
20260509113259 103 0 0.0 0.0 0.00 0.00 0.00 44 1005.0
20260509113108 102 0 0.0 0.0 0.00 0.00 0.00 45 1005.0
20260509112917 104 0 0.0 0.0 0.00 0.00 0.00 44 1005.0
20260509112722 102 0 0.0 0.0 0.00 0.00 0.00 45 1005.0
20260509112531 104 0 0.0 0.0 0.00 0.00 0.00 43 1005.0
20260509112338 104 0 0.0 0.0 0.00 0.00 0.00 43 1005.0
20260509112148 104 0 0.0 0.0 0.00 0.00 0.00 43 1005.0
20260509111956 103 0 0.0 0.0 0.00 0.00 0.00 44 1005.0
20260509111804 102 0 0.0 0.0 0.00 0.00 0.00 45 1005.0
20260509111612 102 0 0.0 0.0 0.00 0.00 0.00 45 1005.0
20260509111422 104 0 0.0 0.0 0.00 0.00 0.00 43 1005.0
20260509111232 104 0 0.0 0.0 0.00 0.00 0.00 43 1005.0
20260509111041 103 0 0.0 0.0 0.00 0.00 0.00 44 1005.0
20260509110848 104 0 0.0 0.0 0.00 0.00 0.00 43 1005.0
20260509110658 104 0 0.0 0.0 0.00 0.00 0.00 43 1005.0
20260509110507 103 0 0.0 0.0 0.00 0.00 0.00 43 1005.0
20260509110317 102 0 0.0 0.0 0.00 0.00 0.00 45 1005.0
20260509110128 102 0 0.0 0.0 0.00 0.00 0.00 44 1005.0
20260509105939 104 0 0.0 0.0 0.00 0.00 0.00 43 1005.0
20260509105747 103 0 0.0 0.0 0.00 0.00 0.00 43 1005.0
20260509105557 104 0 0.0 0.0 0.00 0.00 0.00 43 1005.0
20260509105406 103 0 0.0 0.0 0.00 0.00 0.00 43 1005.0
20260509105217 103 0 0.0 0.0 0.00 0.00 0.00 43 1005.0
20260509105027 102 0 0.0 0.0 0.00 0.00 0.00 45 1005.0
20260509104833 102 0 0.0 0.0 0.00 0.00 0.00 45 1005.0
20260509104643 104 0 0.0 0.0 0.00 0.00 0.00 43 1005.0
20260509104453 102 0 0.0 0.0 0.00 0.00 0.00 44 1005.0
20260509104303 104 0 0.0 0.0 0.00 0.00 0.00 43 1005.0
20260509104111 102 0 0.0 0.0 0.00 0.00 0.00 44 1005.0
20260509103922 102 0 0.0 0.0 0.00 0.00 0.00 45 1005.0
20260509103733 100 0 0.0 0.0 0.00 0.00 0.00 47 1004.0
20260509103542 101 0 0.0 0.0 0.00 0.00 0.00 46 1004.0
20260509103352 102 0 0.0 0.0 0.00 0.00 0.00 44 1004.0
20260509103201 102 0 0.0 0.0 0.00 0.00 0.00 45 1004.0
20260509102655 103 0 0.0 0.0 0.00 0.00 0.00 44 1004.0
20260509102505 103 0 0.0 0.0 0.00 0.00 0.00 43 1004.0
20260509102315 104 0 0.0 0.0 0.00 0.00 0.00 42 1004.0
20260509102125 103 0 0.0 0.0 0.00 0.00 0.00 42 1004.0
20260509101934 103 0 0.0 0.0 0.00 0.00 0.00 42 1004.0
20260509101743 103 0 0.0 0.0 0.00 0.00 0.00 42 1004.0
20260509101553 101 0 0.0 0.0 0.00 0.00 0.00 43 1004.0
20260509101402 104 0 0.0 0.0 0.00 0.00 0.00 40 1004.0
20260509101213 105 0 0.0 0.0 0.00 0.00 0.00 40 1004.0
20260509101022 103 0 0.0 0.0 0.00 0.00 0.00 42 1004.0
20260509100832 103 0 0.0 0.0 0.00 0.00 0.00 41 1004.0
20260509100639 103 0 0.0 0.0 0.00 0.00 0.00 42 1004.0
20260509100450 103 0 0.0 0.0 0.00 0.00 0.00 42 1004.0
20260509100300 103 0 0.0 0.0 0.00 0.00 0.00 42 1004.0
20260509100110 103 0 0.0 0.0 0.00 0.00 0.00 41 1004.0
20260509095920 105 0 0.0 0.0 0.00 0.00 0.00 40 1004.0
20260509095731 104 0 0.0 0.0 0.00 0.00 0.00 40 1004.0
20260509095538 103 0 0.0 0.0 0.00 0.00 0.00 41 1004.0
20260509095348 104 0 0.0 0.0 0.00 0.00 0.00 40 1004.0
20260509095159 104 0 0.0 0.0 0.00 0.00 0.00 40 1004.0
20260509095009 105 0 0.0 0.0 0.00 0.00 0.00 39 1004.0
20260509094815 105 0 0.0 0.0 0.00 0.00 0.00 39 1004.0
20260509094626 104 0 0.0 0.0 0.00 0.00 0.00 40 1004.0
20260509094435 104 0 0.0 0.0 0.00 0.00 0.00 40 1004.0
20260509094245 103 0 0.0 0.0 0.00 0.00 0.00 41 1004.0
20260509094055 104 0 0.0 0.0 0.00 0.00 0.00 40 1004.0
20260509093904 106 0 0.0 0.0 0.00 0.00 0.00 38 1004.0
20260509093715 106 0 0.0 0.0 0.00 0.00 0.00 37 1004.0
20260509093522 106 0 0.0 0.0 0.00 0.00 0.00 38 1004.0
20260509093330 106 0 0.0 0.0 0.00 0.00 0.00 37 1004.0
20260509093140 107 0 0.0 0.0 0.00 0.00 0.00 37 1004.0
20260509092950 106 0 0.0 0.0 0.00 0.00 0.00 37 1004.0
20260509092759 105 0 0.0 0.0 0.00 0.00 0.00 38 1004.0
20260509092610 105 0 0.0 0.0 0.00 0.00 0.00 37 1004.0
20260509092421 106 0 0.0 0.0 0.00 0.00 0.00 36 1004.0
20260509092230 106 0 0.0 0.0 0.00 0.00 0.00 36 1004.0
20260509092041 105 0 0.0 0.0 0.00 0.00 0.00 36 1004.0
20260509091851 105 0 0.0 0.0 0.00 0.00 0.00 36 1004.0
20260509091700 106 0 0.0 0.0 0.00 0.00 0.00 35 1004.0
20260509091509 106 0 0.0 0.0 0.00 0.00 0.00 35 1004.0
20260509091320 105 0 0.0 0.0 0.00 0.00 0.00 35 1004.0
20260509091131 105 0 0.0 0.0 0.00 0.00 0.00 36 1004.0
20260509090942 104 0 0.0 0.0 0.00 0.00 0.00 37 1004.0
20260509090751 103 0 0.0 0.0 0.00 0.00 0.00 37 1004.0
20260509090600 104 0 0.0 0.0 0.00 0.00 0.00 36 1004.0
20260509090407 106 0 0.0 0.0 0.00 0.00 0.00 35 1004.0
20260509090217 105 0 0.0 0.0 0.00 0.00 0.00 35 1004.0
20260509090025 106 0 0.0 0.0 0.00 0.00 0.00 35 1004.0
20260509085833 105 0 0.0 0.0 0.00 0.00 0.00 36 1005.0
20260509085644 105 0 0.0 0.0 0.00 0.00 0.00 36 1005.0
20260509085455 104 0 0.0 0.0 0.00 0.00 0.00 38 1005.0
20260509085307 104 0 0.0 0.0 0.00 0.00 0.00 38 1005.0
20260509085117 104 0 0.0 0.0 0.00 0.00 0.00 39 1005.0
20260509084928 102 0 0.0 0.0 0.00 0.00 0.00 40 1005.0
20260509084739 106 0 0.0 0.0 0.00 0.00 0.00 38 1005.0
20260509084551 107 0 0.0 0.0 0.00 0.00 0.00 37 1005.0
20260509084401 106 0 0.0 0.0 0.00 0.00 0.00 38 1005.0
20260509084211 108 0 0.0 0.0 0.00 0.00 0.00 37 1005.0
20260509084018 108 0 0.0 0.0 0.00 0.00 0.00 37 1005.0
20260509083826 107 0 0.0 0.0 0.00 0.00 0.00 37 1005.0
20260509083634 107 0 0.0 0.0 0.00 0.00 0.00 38 1005.0
20260509083443 106 0 0.0 0.0 0.00 0.00 0.00 39 1005.0
20260509083254 105 0 0.0 0.0 0.00 0.00 0.00 39 1005.0
20260509083104 106 0 0.0 0.0 0.00 0.00 0.00 39 1005.0
20260509082915 106 0 0.0 0.0 0.00 0.00 0.00 39 1005.0
20260509082725 105 0 0.0 0.0 0.00 0.00 0.00 40 1005.0
20260509082536 105 0 0.0 0.0 0.00 0.00 0.00 40 1005.0
20260509082347 104 0 0.0 0.0 0.00 0.00 0.00 40 1005.0
20260509082156 106 0 0.0 0.0 0.00 0.00 0.00 39 1005.0
20260509082004 105 0 0.0 0.0 0.00 0.00 0.00 39 1005.0
20260509081812 105 0 0.0 0.0 0.00 0.00 0.00 40 1006.0
20260509081622 104 0 0.0 0.0 0.00 0.00 0.00 41 1006.0
20260509081432 105 0 0.0 0.0 0.00 0.00 0.00 40 1006.0
20260509081243 104 0 0.0 0.0 0.00 0.00 0.00 40 1006.0
20260509081052 105 0 0.0 0.0 0.00 0.00 0.00 39 1006.0
20260509080903 104 0 0.0 0.0 0.00 0.00 0.00 39 1006.0
20260509080713 102 0 0.0 0.0 0.00 0.00 0.00 40 1006.0
20260509080522 104 0 0.0 0.0 0.00 0.00 0.00 40 1006.0
20260509080331 105 0 0.0 0.0 0.00 0.00 0.00 39 1006.0
20260509080142 103 0 0.0 0.0 0.00 0.00 0.00 40 1006.0
20260509075952 103 0 0.0 0.0 0.00 0.00 0.00 40 1006.0
20260509075803 104 0 0.0 0.0 0.00 0.00 0.00 39 1006.0
20260509075614 103 0 0.0 0.0 0.00 0.00 0.00 40 1006.0
20260509075425 103 0 0.0 0.0 0.00 0.00 0.00 40 1006.0
20260509075236 105 0 0.0 0.0 0.00 0.00 0.00 39 1006.0
20260509075047 104 0 0.0 0.0 0.00 0.00 0.00 40 1006.0
20260509074854 104 0 0.0 0.0 0.00 0.00 0.00 40 1006.0
20260509074704 104 0 0.0 0.0 0.00 0.00 0.00 39 1006.0
20260509074514 105 0 0.0 0.0 0.00 0.00 0.00 39 1006.0
20260509074322 104 0 0.0 0.0 0.00 0.00 0.00 40 1006.0
20260509074130 103 0 0.0 0.0 0.00 0.00 0.00 41 1006.0
20260509073940 104 0 0.0 0.0 0.00 0.00 0.00 40 1006.0
20260509073554 104 0 0.0 0.0 0.00 0.00 0.00 41 1006.0
20260509073405 103 0 0.0 0.0 0.00 0.00 0.00 42 1006.0
20260509073213 103 0 0.0 0.0 0.00 0.00 0.00 41 1006.0
20260509073022 103 0 0.0 0.0 0.00 0.00 0.00 41 1006.0
20260509072832 101 0 0.0 0.0 0.00 0.00 0.00 43 1006.0
20260509072641 103 0 0.0 0.0 0.00 0.00 0.00 42 1006.0
20260509072451 101 0 0.0 0.0 0.00 0.00 0.00 44 1006.0
20260509072259 101 0 0.0 0.0 0.00 0.00 0.00 43 1007.0
20260509072108 102 0 0.0 0.0 0.00 0.00 0.00 42 1007.0
20260509071916 102 0 0.0 0.0 0.00 0.00 0.00 42 1007.0
20260509071726 103 0 0.0 0.0 0.00 0.00 0.00 42 1007.0
20260509071537 103 0 0.0 0.0 0.00 0.00 0.00 42 1007.0
20260509071347 101 0 0.0 0.0 0.00 0.00 0.00 43 1007.0
20260509071154 100 0 0.0 0.0 0.00 0.00 0.00 44 1007.0
20260509071003 102 0 0.0 0.0 0.00 0.00 0.00 42 1007.0
20260509070814 103 0 0.0 0.0 0.00 0.00 0.00 41 1007.0
20260509070624 104 0 0.0 0.0 0.00 0.00 0.00 40 1007.0
20260509070434 104 0 0.0 0.0 0.00 0.00 0.00 39 1007.0
20260509070244 104 0 0.0 0.0 0.00 0.00 0.00 39 1007.0
20260509070054 104 0 0.0 0.0 0.00 0.00 0.00 39 1007.0
20260509065904 104 0 0.0 0.0 0.00 0.00 0.00 39 1007.0
20260509065715 103 0 0.0 0.0 0.00 0.00 0.00 40 1007.0
20260509065526 104 0 0.0 0.0 0.00 0.00 0.00 39 1007.0
20260509065337 103 0 0.0 0.0 0.00 0.00 0.00 40 1007.0
20260509064801 101 0 0.0 0.0 0.00 0.00 0.00 42 1007.0
20260509064607 100 0 0.0 0.0 0.00 0.00 0.00 42 1007.0
20260509064418 100 0 0.0 0.0 0.00 0.00 0.00 43 1007.0
20260509064226 100 0 0.0 0.0 0.00 0.00 0.00 42 1007.0
20260509064037 104 0 0.0 0.0 0.00 0.00 0.00 39 1007.0
20260509063846 103 0 0.0 0.0 0.00 0.00 0.00 39 1007.0
20260509063651 104 0 0.0 0.0 0.00 0.00 0.00 39 1007.0
20260509063502 105 0 0.0 0.0 0.00 0.00 0.00 38 1007.0
20260509063311 104 0 0.0 0.0 0.00 0.00 0.00 38 1007.0
20260509063120 104 0 0.0 0.0 0.00 0.00 0.00 38 1007.0
20260509062930 103 0 0.0 0.0 0.00 0.00 0.00 39 1007.0
20260509062741 103 0 0.0 0.0 0.00 0.00 0.00 39 1007.0
20260509062551 103 0 0.0 0.0 0.00 0.00 0.00 40 1007.0
20260509062400 102 0 0.0 0.0 0.00 0.00 0.00 40 1008.0
20260509062211 102 0 0.0 0.0 0.00 0.00 0.00 40 1008.0
20260509062021 103 0 0.0 0.0 0.00 0.00 0.00 39 1008.0
20260509061832 103 0 0.0 0.0 0.00 0.00 0.00 40 1008.0
20260509061644 103 0 0.0 0.0 0.00 0.00 0.00 40 1008.0
20260509061514 103 0 0.0 0.0 0.00 0.00 0.00 40 1008.0
20260509061324 102 0 0.0 0.0 0.00 0.00 0.00 40 1008.0
20260509061133 101 0 0.0 0.0 0.00 0.00 0.00 41 1008.0
20260509060943 101 0 0.0 0.0 0.00 0.00 0.00 41 1008.0
20260509060754 102 0 0.0 0.0 0.00 0.00 0.00 41 1008.0
20260509060603 101 0 0.0 0.0 0.00 0.00 0.00 42 1008.0
20260509060413 102 0 0.0 0.0 0.00 0.00 0.00 41 1008.0
20260509060223 102 0 0.0 0.0 0.00 0.00 0.00 40 1008.0
20260509060034 101 0 0.0 0.0 0.00 0.00 0.00 42 1008.0
20260509055845 100 0 0.0 0.0 0.00 0.00 0.00 43 1008.0
20260509055656 102 0 0.0 0.0 0.00 0.00 0.00 41 1008.0
20260509055507 101 0 0.0 0.0 0.00 0.00 0.00 42 1008.0
20260509055317 101 0 0.0 0.0 0.00 0.00 0.00 43 1008.0
20260509055127 102 0 0.0 0.0 0.00 0.00 0.00 42 1008.0
20260509054937 102 0 0.0 0.0 0.00 0.00 0.00 41 1008.0
20260509054749 100 0 0.0 0.0 0.00 0.00 0.00 43 1008.0
20260509054559 101 0 0.0 0.0 0.00 0.00 0.00 43 1008.0
20260509054409 102 0 0.0 0.0 0.00 0.00 0.00 41 1008.0
20260509054219 103 0 0.0 0.0 0.00 0.00 0.00 40 1008.0
20260509054030 103 0 0.0 0.0 0.00 0.00 0.00 40 1008.0
20260509053840 103 0 0.0 0.0 0.00 0.00 0.00 40 1008.0
20260509053457 104 0 0.0 0.0 0.00 0.00 0.00 40 1008.0
20260509053308 104 0 0.0 0.0 0.00 0.00 0.00 39 1009.0
20260509053120 103 0 0.0 0.0 0.00 0.00 0.00 40 1009.0
20260509052738 101 0 0.0 0.0 0.00 0.00 0.00 42 1009.0
20260509052547 100 0 0.0 0.0 0.00 0.00 0.00 43 1009.0
20260509052358 102 0 0.0 0.0 0.00 0.00 0.00 42 1009.0
20260509052019 101 0 0.0 0.0 0.00 0.00 0.00 42 1009.0
20260509051829 100 0 0.0 0.0 0.00 0.00 0.00 44 1009.0
20260509051640 101 0 0.0 0.0 0.00 0.00 0.00 43 1009.0
20260509051450 101 0 0.0 0.0 0.00 0.00 0.00 43 1009.0
20260509051301 103 0 0.0 0.0 0.00 0.00 0.00 40 1009.0
20260509051112 103 0 0.0 0.0 0.00 0.00 0.00 41 1009.0
20260509050924 102 0 0.0 0.0 0.00 0.00 0.00 42 1009.0
20260509050734 101 0 0.0 0.0 0.00 0.00 0.00 43 1009.0
20260509050545 101 0 0.0 0.0 0.00 0.00 0.00 43 1009.0
20260509050356 99 0 0.0 0.0 0.00 0.00 0.00 44 1009.0
20260509050206 100 0 0.0 0.0 0.00 0.00 0.00 43 1009.0
20260509045827 101 0 0.0 0.0 0.00 0.00 0.00 43 1009.0
20260509045638 99 0 0.0 0.0 0.00 0.00 0.00 44 1009.0
20260509045449 101 0 0.0 0.0 0.00 0.00 0.00 42 1009.0
20260509045259 102 0 0.0 0.0 0.00 0.00 0.00 41 1009.0
20260509045110 101 0 0.0 0.0 0.00 0.00 0.00 42 1009.0
20260509044920 100 0 0.0 0.0 0.00 0.00 0.00 43 1009.0
20260509044731 101 0 0.0 0.0 0.00 0.00 0.00 43 1009.0
20260509044540 101 0 0.0 0.0 0.00 0.00 0.00 43 1009.0
20260509044351 101 0 0.0 0.0 0.00 0.00 0.00 42 1009.0
20260509044201 101 0 0.0 0.0 0.00 0.00 0.00 43 1009.0
20260509044008 101 0 0.0 0.0 0.00 0.00 0.00 42 1009.0
20260509043821 100 0 0.0 0.0 0.00 0.00 0.00 43 1009.0
20260509043627 103 0 0.0 0.0 0.00 0.00 0.00 40 1009.0
20260509043437 103 0 0.0 0.0 0.00 0.00 0.00 40 1009.0
20260509043247 101 0 0.0 0.0 0.00 0.00 0.00 42 1009.0
20260509043058 103 0 0.0 0.0 0.00 0.00 0.00 40 1009.0
20260509042908 104 0 0.0 0.0 0.00 0.00 0.00 40 1009.0
20260509042718 102 0 0.0 0.0 0.00 0.00 0.00 41 1009.0
20260509042526 102 0 0.0 0.0 0.00 0.00 0.00 42 1009.0
20260509042335 100 0 0.0 0.0 0.00 0.00 0.00 43 1009.0
20260509042145 99 0 0.0 0.0 0.00 0.00 0.00 44 1009.0
20260509041955 99 0 0.0 0.0 0.00 0.00 0.00 44 1009.0
20260509041806 99 0 0.0 0.0 0.00 0.00 0.00 44 1009.0
20260509041616 98 0 0.0 0.0 0.00 0.00 0.00 45 1009.0
20260509041426 100 0 0.0 0.0 0.00 0.00 0.00 43 1009.0
20260509041235 102 0 0.0 0.0 0.00 0.00 0.00 41 1009.0
20260509041044 104 0 0.0 0.0 0.00 0.00 0.00 39 1010.0
20260509040852 102 0 0.0 0.0 0.00 0.00 0.00 41 1009.0
20260509040703 100 0 0.0 0.0 0.00 0.00 0.00 42 1010.0
20260509040513 100 0 0.0 0.0 0.00 0.00 0.00 43 1010.0
20260509040325 100 0 0.0 0.0 0.00 0.00 0.00 43 1010.0
20260509040136 101 0 0.0 0.0 0.00 0.00 0.00 42 1010.0
20260509035947 101 0 0.0 0.0 0.00 0.00 0.00 42 1010.0
20260509035757 102 0 0.0 0.0 0.00 0.00 0.00 42 1010.0
20260509035608 101 0 0.0 0.0 0.00 0.00 0.00 42 1010.0
20260509035418 104 0 0.0 0.0 0.00 0.00 0.00 40 1010.0
20260509035227 103 0 0.0 0.0 0.00 0.00 0.00 41 1010.0
20260509035033 102 0 0.0 0.0 0.00 0.00 0.00 42 1010.0
20260509034844 101 0 0.0 0.0 0.00 0.00 0.00 43 1010.0
20260509034655 102 0 0.0 0.0 0.00 0.00 0.00 42 1010.0
20260509034505 100 0 0.0 0.0 0.00 0.00 0.00 44 1010.0
20260509034313 99 0 0.0 0.0 0.00 0.00 0.00 45 1010.0
20260509034123 99 0 0.0 0.0 0.00 0.00 0.00 45 1010.0
20260509033932 103 0 0.0 0.0 0.00 0.00 0.00 41 1010.0
20260509033741 103 0 0.0 0.0 0.00 0.00 0.00 41 1010.0
20260509033552 102 0 0.0 0.0 0.00 0.00 0.00 42 1010.0
20260509033402 102 0 0.0 0.0 0.00 0.00 0.00 41 1010.0
20260509033212 101 0 0.0 0.0 0.00 0.00 0.00 43 1010.0
20260509033023 101 0 0.0 0.0 0.00 0.00 0.00 43 1010.0
20260509032832 99 0 0.0 0.0 0.00 0.00 0.00 44 1010.0
20260509032642 99 0 0.0 0.0 0.00 0.00 0.00 44 1010.0
20260509032453 101 0 0.0 0.0 0.00 0.00 0.00 42 1010.0
20260509032306 102 0 0.0 0.0 0.00 0.00 0.00 41 1010.0
20260509032112 102 0 0.0 0.0 0.00 0.00 0.00 41 1010.0
20260509031922 103 0 0.0 0.0 0.00 0.00 0.00 40 1010.0
20260509031729 101 0 0.0 0.0 0.00 0.00 0.00 41 1010.0
20260509031539 102 0 0.0 0.0 0.00 0.00 0.00 40 1010.0
20260509031348 101 0 0.0 0.0 0.00 0.00 0.00 42 1010.0
20260509031159 99 0 0.0 0.0 0.00 0.00 0.00 44 1010.0
20260509031011 101 0 0.0 0.0 0.00 0.00 0.00 43 1010.0
20260509030817 103 0 0.0 0.0 0.00 0.00 0.00 42 1010.0
20260509030626 103 0 0.0 0.0 0.00 0.00 0.00 42 1010.0
20260509030434 103 0 0.0 0.0 0.00 0.00 0.00 42 1010.0
20260509030244 103 0 0.0 0.0 0.00 0.00 0.00 42 1010.0
20260509030055 102 0 0.0 0.0 0.00 0.00 0.00 43 1010.0
20260509025905 103 0 0.0 0.0 0.00 0.00 0.00 42 1010.0
20260509025715 102 0 0.0 0.0 0.00 0.00 0.00 43 1010.0
20260509025526 102 0 0.0 0.0 0.00 0.00 0.00 43 1010.0
20260509025337 99 0 0.0 0.0 0.00 0.00 0.00 46 1010.0
20260509025147 100 0 0.0 0.0 0.00 0.00 0.00 45 1010.0
20260509024957 100 0 0.0 0.0 0.00 0.00 0.00 46 1010.0
20260509024808 100 0 0.0 0.0 0.00 0.00 0.00 46 1010.0
20260509024618 98 0 0.0 0.0 0.00 0.00 0.00 48 1010.0
20260509024429 100 0 0.0 0.0 0.00 0.00 0.00 46 1010.0
20260509024239 100 0 0.0 0.0 0.00 0.00 0.00 46 1011.0
20260509024050 99 0 0.0 0.0 0.00 0.00 0.00 46 1011.0
20260509023859 100 0 0.0 0.0 0.00 0.00 0.00 46 1011.0
20260509023707 99 0 0.0 0.0 0.00 0.00 0.00 47 1011.0
20260509023517 99 0 0.0 0.0 0.00 0.00 0.00 47 1011.0
20260509023325 99 0 0.0 0.0 0.00 0.00 0.00 47 1011.0
20260509023135 100 0 0.0 0.0 0.00 0.00 0.00 46 1011.0
20260509022945 98 0 0.0 0.0 0.00 0.00 0.00 48 1011.0
20260509022555 98 0 0.0 0.0 0.00 0.00 0.00 48 1011.0
20260509022403 98 0 0.0 0.0 0.00 0.00 0.00 49 1011.0
20260509022214 98 0 0.0 0.0 0.00 0.00 0.00 48 1011.0
20260509021835 98 0 0.0 0.0 0.00 0.00 0.00 49 1011.0
20260509021645 99 0 0.0 0.0 0.00 0.00 0.00 47 1011.0
20260509021456 99 0 0.0 0.0 0.00 0.00 0.00 47 1011.0
20260509021306 100 0 0.0 0.0 0.00 0.00 0.00 47 1011.0
20260509021117 99 0 0.0 0.0 0.00 0.00 0.00 47 1011.0
20260509020928 98 0 0.0 0.0 0.00 0.00 0.00 49 1011.0
20260509020737 99 0 0.0 0.0 0.00 0.00 0.00 48 1011.0
20260509020546 97 0 0.0 0.0 0.00 0.00 0.00 50 1011.0
20260509020354 97 0 0.0 0.0 0.00 0.00 0.00 50 1011.0
20260509020204 98 0 0.0 0.0 0.00 0.00 0.00 49 1011.0
20260509020014 97 0 0.0 0.0 0.00 0.00 0.00 51 1011.0
20260509015825 95 0 0.0 0.0 0.00 0.00 0.00 52 1011.0
20260509015635 96 0 0.0 0.0 0.00 0.00 0.00 51 1011.0
20260509015443 98 0 0.0 0.0 0.00 0.00 0.00 49 1011.0
20260509015252 98 0 0.0 0.0 0.00 0.00 0.00 49 1011.0
20260509015102 97 0 0.0 0.0 0.00 0.00 0.00 50 1011.0
20260509014911 95 0 0.0 0.0 0.00 0.00 0.00 53 1011.0
20260509014719 95 0 0.0 0.0 0.00 0.00 0.00 52 1011.0
20260509014525 96 0 0.0 0.0 0.00 0.00 0.00 51 1011.0
20260509014333 98 0 0.0 0.0 0.00 0.00 0.00 50 1011.0
20260509014144 97 0 0.0 0.0 0.00 0.00 0.00 50 1011.0
20260509013955 96 0 0.0 0.0 0.00 0.00 0.00 52 1011.0
20260509013807 94 0 0.0 0.0 0.00 0.00 0.00 54 1011.0
20260509013613 94 0 0.0 0.0 0.00 0.00 0.00 54 1011.0
20260509013424 95 0 0.0 0.0 0.00 0.00 0.00 53 1011.0
20260509013234 97 0 0.0 0.0 0.00 0.00 0.00 51 1011.0
20260509013044 95 0 0.0 0.0 0.00 0.00 0.00 53 1011.0
20260509012854 95 0 0.0 0.0 0.00 0.00 0.00 52 1011.0
20260509012704 96 0 0.0 0.0 0.00 0.00 0.00 51 1011.0
20260509012515 97 0 0.0 0.0 0.00 0.00 0.00 50 1011.0
20260509012135 96 0 0.0 0.0 0.00 0.00 0.00 51 1011.0
20260509011944 96 0 0.0 0.0 0.00 0.00 0.00 52 1011.0
20260509011754 94 0 0.0 0.0 0.00 0.00 0.00 53 1011.0
20260509011604 97 0 0.0 0.0 0.00 0.00 0.00 51 1011.0
20260509011415 97 0 0.0 0.0 0.00 0.00 0.00 50 1011.0
20260509011225 99 0 0.0 0.0 0.00 0.00 0.00 48 1011.0
20260509011034 97 0 0.0 0.0 0.00 0.00 0.00 50 1011.0
20260509010844 98 0 0.0 0.0 0.00 0.00 0.00 48 1011.0
20260509010654 98 0 0.0 0.0 0.00 0.00 0.00 49 1011.0
20260509010504 97 0 0.0 0.0 0.00 0.00 0.00 51 1011.0
20260509010315 99 0 0.0 0.0 0.00 0.00 0.00 48 1011.0
20260509010124 99 0 0.0 0.0 0.00 0.00 0.00 48 1011.0
20260509005935 99 0 0.0 0.0 0.00 0.00 0.00 48 1010.0
20260509005746 99 0 0.0 0.0 0.00 0.00 0.00 49 1010.0
20260509005558 98 0 0.0 0.0 0.00 0.00 0.00 49 1010.0
20260509005408 98 0 0.0 0.0 0.00 0.00 0.00 50 1010.0
20260509005214 97 0 0.0 0.0 0.00 0.00 0.00 51 1010.0
20260509005024 96 0 0.0 0.0 0.00 0.00 0.00 52 1010.0
20260509004831 95 0 0.0 0.0 0.00 0.00 0.00 53 1010.0
20260509004641 95 0 0.0 0.0 0.00 0.00 0.00 54 1010.0
20260509004451 94 0 0.0 0.0 0.00 0.00 0.00 55 1010.0
20260509004302 92 0 0.0 0.0 0.00 0.00 0.00 58 1010.0
20260509004111 93 0 0.0 0.0 0.00 0.00 0.00 57 1010.0
20260509003921 92 0 0.0 0.0 0.00 0.00 0.00 58 1010.0
20260509003732 91 0 0.0 0.0 0.00 0.00 0.00 59 1010.0
20260509003543 92 0 0.0 0.0 0.00 0.00 0.00 58 1010.0
20260509003350 91 0 0.0 0.0 0.00 0.00 0.00 59 1010.0
20260509003200 90 0 0.0 0.0 0.00 0.00 0.00 61 1010.0
20260509003011 90 0 0.0 0.0 0.00 0.00 0.00 61 1010.0
20260509002821 91 0 0.0 0.0 0.00 0.00 0.00 60 1010.0
20260509002630 90 0 0.0 0.0 0.00 0.00 0.00 62 1010.0
20260509002439 90 0 0.0 0.0 0.00 0.00 0.00 61 1010.0
20260509002248 90 0 0.0 0.0 0.00 0.00 0.00 61 1010.0
20260509002058 90 0 0.0 0.0 0.00 0.00 0.00 61 1010.0
20260509001909 90 0 0.0 0.0 0.00 0.00 0.00 61 1010.0
20260509001718 89 0 0.0 0.0 0.00 0.00 0.00 62 1010.0
20260509001529 90 0 0.0 0.0 0.00 0.00 0.00 60 1010.0
20260509001338 90 0 0.0 0.0 0.00 0.00 0.00 60 1010.0
20260509001145 91 0 0.0 0.0 0.00 0.00 0.00 60 1010.0
20260509000956 90 0 0.0 0.0 0.00 0.00 0.00 60 1010.0
20260509000805 91 0 0.0 0.0 0.00 0.00 0.00 60 1010.0
20260509000613 89 0 0.0 0.0 0.00 0.00 0.00 62 1010.0
20260509000423 89 0 0.0 0.0 0.00 0.00 0.00 62 1010.0
20260509000234 90 0 0.0 0.0 0.00 0.00 0.00 62 1010.0
20260509000044 90 0 0.0 0.0 0.00 0.00 0.00 61 1010.0
20260508235855 90 0 0.0 0.0 0.00 0.00 0.00 60 1010.0
20260508235704 90 0 0.0 0.0 0.00 0.00 0.00 61 1010.0
20260508235513 90 0 0.0 0.0 0.00 0.00 0.00 61 1010.0
20260508235318 90 0 0.0 0.0 0.00 0.00 0.00 61 1010.0
20260508235126 89 0 0.0 0.0 0.00 0.00 0.00 62 1010.0
20260508234937 90 0 0.0 0.0 0.00 0.00 0.00 61 1010.0
20260508234747 90 0 0.0 0.0 0.00 0.00 0.00 61 1010.0
20260508234412 90 0 0.0 0.0 0.00 0.00 0.00 60 1010.0
20260508234219 89 0 0.0 0.0 0.00 0.00 0.00 62 1010.0
20260508234028 89 0 0.0 0.0 0.00 0.00 0.00 62 1010.0
20260508233837 90 0 0.0 0.0 0.00 0.00 0.00 59 1010.0
20260508233645 91 0 0.0 0.0 0.00 0.00 0.00 59 1010.0
20260508233454 90 0 0.0 0.0 0.00 0.00 0.00 60 1010.0
20260508233302 91 0 0.0 0.0 0.00 0.00 0.00 59 1010.0
20260508233111 91 0 0.0 0.0 0.00 0.00 0.00 59 1010.0
20260508232918 91 0 0.0 0.0 0.00 0.00 0.00 58 1010.0
20260508232723 91 0 0.0 0.0 0.00 0.00 0.00 59 1010.0
20260508232533 91 0 0.0 0.0 0.00 0.00 0.00 59 1010.0
20260508232343 91 0 0.0 0.0 0.00 0.00 0.00 58 1010.0
20260508232153 91 0 0.0 0.0 0.00 0.00 0.00 58 1009.0
20260508232001 91 0 0.0 0.0 0.00 0.00 0.00 59 1009.0
20260508231811 90 0 0.0 0.0 0.00 0.00 0.00 60 1009.0
20260508231621 91 0 0.0 0.0 0.00 0.00 0.00 58 1009.0
20260508231431 90 0 0.0 0.0 0.00 0.00 0.00 60 1009.0
20260508231242 91 0 0.0 0.0 0.00 0.00 0.00 58 1009.0
20260508231048 92 0 0.0 0.0 0.00 0.00 0.00 57 1009.0
20260508230858 92 0 0.0 0.0 0.00 0.00 0.00 56 1009.0
20260508230529 92 0 0.0 0.0 0.00 0.00 0.00 57 1009.0
20260508230338 91 0 0.0 0.0 0.00 0.00 0.00 58 1009.0
20260508230149 91 0 0.0 0.0 0.00 0.00 0.00 57 1009.0
20260508225959 91 0 0.0 0.0 0.00 0.00 0.00 59 1009.0
20260508225809 92 0 0.0 0.0 0.00 0.00 0.00 57 1009.0
20260508225428 93 0 0.0 0.0 0.00 0.00 0.00 55 1009.0
20260508225235 93 0 0.0 0.0 0.00 0.00 0.00 55 1009.0
20260508225044 93 0 0.0 0.0 0.00 0.00 0.00 55 1009.0
20260508224853 92 0 0.0 0.0 0.00 0.00 0.00 56 1009.0
20260508224704 92 0 0.0 0.0 0.00 0.00 0.00 56 1009.0
20260508224514 92 0 0.0 0.0 0.00 0.00 0.00 56 1009.0
20260508224321 91 0 0.0 0.0 0.00 0.00 0.00 58 1009.0
20260508224131 92 0 0.0 0.0 0.00 0.00 0.00 56 1009.0
20260508223942 91 0 0.0 0.0 0.00 0.00 0.00 57 1009.0
20260508223753 92 0 0.0 0.0 0.00 0.00 0.00 57 1009.0
20260508223603 92 0 0.0 0.0 0.00 0.00 0.00 57 1009.0
20260508223411 92 0 0.0 0.0 0.00 0.00 0.00 56 1009.0
20260508223221 93 0 0.0 0.0 0.00 0.00 0.00 55 1009.0
20260508223031 92 0 0.0 0.0 0.00 0.00 0.00 55 1009.0
20260508222840 93 0 0.0 0.0 0.00 0.00 0.00 54 1009.0
20260508222650 93 0 0.0 0.0 0.00 0.00 0.00 55 1009.0
20260508222459 93 0 0.0 0.0 0.00 0.00 0.00 54 1009.0
20260508222310 93 0 0.0 0.0 0.00 0.00 0.00 54 1009.0
20260508222119 93 0 0.0 0.0 0.00 0.00 0.00 54 1009.0
20260508221928 93 0 0.0 0.0 0.00 0.00 0.00 54 1009.0
20260508221737 92 0 0.0 0.0 0.00 0.00 0.00 56 1009.0
20260508221548 93 0 0.0 0.0 0.00 0.00 0.00 54 1009.0
20260508221358 93 0 0.0 0.0 0.00 0.00 0.00 54 1009.0
20260508221227 93 0 0.0 0.0 0.00 0.00 0.00 54 1009.0
20260508221037 93 0 0.0 0.0 0.00 0.00 0.00 54 1009.0
20260508220847 94 0 0.0 0.0 0.00 0.00 0.00 54 1009.0
20260508220656 93 0 0.0 0.0 0.00 0.00 0.00 54 1009.0
20260508220507 93 0 0.0 0.0 0.00 0.00 0.00 54 1009.0
20260508220315 93 0 0.0 0.0 0.00 0.00 0.00 55 1008.0
20260508220125 93 0 0.0 0.0 0.00 0.00 0.00 54 1008.0
20260508215934 93 0 0.0 0.0 0.00 0.00 0.00 54 1008.0
20260508215741 93 0 0.0 0.0 0.00 0.00 0.00 55 1008.0
20260508215549 92 0 0.0 0.0 0.00 0.00 0.00 56 1008.0
20260508215359 93 0 0.0 0.0 0.00 0.00 0.00 55 1008.0
20260508215208 93 0 0.0 0.0 0.00 0.00 0.00 54 1008.0
20260508215019 93 0 0.0 0.0 0.00 0.00 0.00 55 1008.0
20260508214829 92 0 0.0 0.0 0.00 0.00 0.00 56 1008.0
20260508214638 92 0 0.0 0.0 0.00 0.00 0.00 56 1008.0
20260508214448 93 0 0.0 0.0 0.00 0.00 0.00 55 1008.0
20260508214255 92 0 0.0 0.0 0.00 0.00 0.00 56 1008.0
20260508213552 92 0 0.0 0.0 0.00 0.00 0.00 57 1008.0
20260508213402 92 0 0.0 0.0 0.00 0.00 0.00 57 1008.0
20260508213212 92 0 0.0 0.0 0.00 0.00 0.00 57 1008.0
20260508213022 92 0 0.0 0.0 0.00 0.00 0.00 57 1008.0
20260508212832 91 0 0.0 0.0 0.00 0.00 0.00 58 1008.0
20260508212642 92 0 0.0 0.0 0.00 0.00 0.00 57 1008.0
20260508212452 91 0 0.0 0.0 0.00 0.00 0.00 58 1008.0
20260508212110 91 0 0.0 0.0 0.00 0.00 0.00 58 1008.0
20260508211918 90 0 0.0 0.0 0.00 0.00 0.00 59 1008.0
20260508211724 90 0 0.0 0.0 0.00 0.00 0.00 59 1008.0
20260508211535 91 0 0.0 0.0 0.00 0.00 0.00 57 1008.0
20260508211345 90 0 0.0 0.0 0.00 0.00 0.00 59 1008.0
20260508211154 91 0 0.0 0.0 0.00 0.00 0.00 58 1008.0
20260508211002 91 0 0.0 0.0 0.00 0.00 0.00 58 1008.0
20260508210810 91 0 0.0 0.0 0.00 0.00 0.00 58 1008.0
20260508210619 91 0 0.0 0.0 0.00 0.00 0.00 57 1008.0
20260508210431 91 0 0.0 0.0 0.00 0.00 0.00 58 1008.0
20260508210239 90 0 0.0 0.0 0.00 0.00 0.00 59 1008.0
20260508210050 90 0 0.0 0.0 0.00 0.00 0.00 59 1008.0
20260508205859 90 0 0.0 0.0 0.00 0.00 0.00 60 1008.0
20260508205707 90 0 0.0 0.0 0.00 0.00 0.00 59 1008.0
20260508205326 90 0 0.0 0.0 0.00 0.00 0.00 59 1008.0
20260508205136 91 0 0.0 0.0 0.00 0.00 0.00 57 1008.0
20260508204945 91 0 0.0 0.0 0.00 0.00 0.00 57 1008.0
20260508204754 89 0 0.0 0.0 0.00 0.00 0.00 60 1008.0
20260508204601 90 0 0.0 0.0 0.00 0.00 0.00 58 1008.0
20260508204411 90 0 0.0 0.0 0.00 0.00 0.00 59 1008.0
20260508204221 90 0 0.0 0.0 0.00 0.00 0.00 58 1008.0
20260508204032 91 0 0.0 0.0 0.00 0.00 0.00 57 1008.0
20260508203841 91 0 0.0 0.0 0.00 0.00 0.00 58 1008.0
20260508203651 91 0 0.0 0.0 0.00 0.00 0.00 58 1008.0
20260508203458 91 0 0.0 0.0 0.00 0.00 0.00 57 1008.0
20260508203306 90 0 0.0 0.0 0.00 0.00 0.00 58 1008.0
20260508203112 90 0 0.0 0.0 0.00 0.00 0.00 58 1008.0
20260508202922 91 0 0.0 0.0 0.00 0.00 0.00 58 1008.0
20260508202731 92 0 0.0 0.0 0.00 0.00 0.00 56 1008.0
20260508202539 91 0 0.0 0.0 0.00 0.00 0.00 57 1008.0
20260508202348 90 0 0.0 0.0 0.00 0.00 0.00 59 1008.0
20260508202157 89 0 0.0 0.0 0.00 0.00 0.00 60 1008.0
20260508202008 90 0 0.0 0.0 0.00 0.00 0.00 59 1008.0
20260508201818 89 0 0.0 0.0 0.00 0.00 0.00 60 1008.0
20260508201625 88 0 0.0 0.0 0.00 0.00 0.00 61 1008.0
20260508201435 89 0 0.0 0.0 0.00 0.00 0.00 61 1007.0
20260508201244 88 0 0.0 0.0 0.00 0.00 0.00 61 1007.0
20260508201052 89 0 0.0 0.0 0.00 0.00 0.00 60 1007.0
20260508200859 91 0 0.0 0.0 0.00 0.00 0.00 58 1007.0
20260508200540 90 0 0.0 0.0 0.00 0.00 0.00 58 1007.0
20260508200349 90 0 0.0 0.0 0.00 0.00 0.00 59 1007.0
20260508200202 89 0 0.0 0.0 0.00 0.00 0.00 60 1007.0
20260508200011 89 0 0.0 0.0 0.00 0.00 0.00 59 1007.0
20260508195821 91 0 0.0 0.0 0.00 0.00 0.00 58 1007.0
20260508195631 90 0 0.0 0.0 0.00 0.00 0.00 58 1007.0
20260508195441 89 0 0.0 0.0 0.00 0.00 0.00 59 1007.0
20260508195251 89 0 0.0 0.0 0.00 0.00 0.00 60 1007.0
20260508195058 89 0 0.0 0.0 0.00 0.00 0.00 60 1007.0
20260508194909 90 0 0.0 0.0 0.00 0.00 0.00 59 1007.0
20260508194716 90 0 0.0 0.0 0.00 0.00 0.00 59 1007.0
20260508194525 90 0 0.0 0.0 0.00 0.00 0.00 59 1007.0
20260508194332 89 0 0.0 0.0 0.00 0.00 0.00 59 1008.0
20260508194142 89 0 0.0 0.0 0.00 0.00 0.00 60 1008.0
20260508193952 89 0 0.0 0.0 0.00 0.00 0.00 61 1008.0
20260508193759 89 0 0.0 0.0 0.00 0.00 0.00 61 1008.0
20260508193608 88 0 0.0 0.0 0.00 0.00 0.00 62 1008.0
20260508193419 87 0 0.0 0.0 0.00 0.00 0.00 63 1007.0
20260508193225 87 0 0.0 0.0 0.00 0.00 0.00 63 1008.0
20260508193029 88 0 0.0 0.0 0.00 0.00 0.00 62 1008.0
20260508192839 88 0 0.0 0.0 0.00 0.00 0.00 62 1008.0
20260508192648 88 0 0.0 0.0 0.00 0.00 0.00 62 1008.0
20260508192459 89 0 0.0 0.0 0.00 0.00 0.00 60 1008.0
20260508192306 89 0 0.0 0.0 0.00 0.00 0.00 60 1008.0
20260508192117 89 0 0.0 0.0 0.00 0.00 0.00 60 1008.0
20260508191927 88 0 0.0 0.0 0.00 0.00 0.00 61 1008.0
20260508191737 89 0 0.0 0.0 0.00 0.00 0.00 60 1008.0
20260508191545 89 0 0.0 0.0 0.00 0.00 0.00 59 1008.0
20260508191352 88 0 0.0 0.0 0.00 0.00 0.00 62 1008.0
20260508191201 89 0 0.0 0.0 0.00 0.00 0.00 60 1008.0
20260508191009 90 0 0.0 0.0 0.00 0.00 0.00 58 1008.0
20260508190819 90 0 0.0 0.0 0.00 0.00 0.00 58 1008.0
20260508190629 90 0 0.0 0.0 0.00 0.00 0.00 59 1008.0
20260508190439 89 0 0.0 0.0 0.00 0.00 0.00 59 1008.0
20260508190249 89 0 0.0 0.0 0.00 0.00 0.00 59 1008.0
20260508190058 88 0 0.0 0.0 0.00 0.00 0.00 61 1008.0
20260508185909 87 0 0.0 0.0 0.00 0.00 0.00 63 1008.0
20260508185720 88 0 0.0 0.0 0.00 0.00 0.00 61 1008.0
20260508185527 88 0 0.0 0.0 0.00 0.00 0.00 60 1008.0
20260508185338 90 0 0.0 0.0 0.00 0.00 0.00 58 1008.0
20260508185147 91 0 0.0 0.0 0.00 0.00 0.00 56 1008.0
20260508184957 91 0 0.0 0.0 0.00 0.00 0.00 56 1008.0
20260508184807 91 0 0.0 0.0 0.00 0.00 0.00 56 1008.0
20260508184618 91 0 0.0 0.0 0.00 0.00 0.00 56 1008.0
20260508184429 92 0 0.0 0.0 0.00 0.00 0.00 54 1008.0
20260508184235 92 0 0.0 0.0 0.00 0.00 0.00 54 1008.0
20260508184045 92 0 0.0 0.0 0.00 0.00 0.00 54 1008.0
20260508183852 92 0 0.0 0.0 0.00 0.00 0.00 54 1008.0
20260508183701 92 0 0.0 0.0 0.00 0.00 0.00 54 1008.0
20260508183508 92 0 0.0 0.0 0.00 0.00 0.00 54 1008.0
20260508183318 91 0 0.0 0.0 0.00 0.00 0.00 55 1008.0
20260508183125 91 0 0.0 0.0 0.00 0.00 0.00 55 1008.0
20260508182936 91 0 0.0 0.0 0.00 0.00 0.00 56 1008.0
20260508182746 91 0 0.0 0.0 0.00 0.00 0.00 56 1008.0
20260508182557 91 0 0.0 0.0 0.00 0.00 0.00 56 1008.0
20260508182404 90 0 0.0 0.0 0.00 0.00 0.00 57 1008.0
20260508182210 89 0 0.0 0.0 0.00 0.00 0.00 59 1008.0
20260508181449 91 0 0.0 0.0 0.00 0.00 0.00 56 1008.0
20260508181259 92 0 0.0 0.0 0.00 0.00 0.00 55 1008.0
20260508181107 92 0 0.0 0.0 0.00 0.00 0.00 55 1008.0
20260508180729 92 0 0.0 0.0 0.00 0.00 0.00 54 1008.0
20260508180535 91 0 0.0 0.0 0.00 0.00 0.00 56 1008.0
20260508180342 92 0 0.0 0.0 0.00 0.00 0.00 55 1008.0
20260508180152 91 0 0.0 0.0 0.00 0.00 0.00 56 1008.0
20260508175958 90 0 0.0 0.0 0.00 0.00 0.00 58 1008.0
20260508175809 91 0 0.0 0.0 0.00 0.00 0.00 57 1008.0
20260508175619 91 0 0.0 0.0 0.00 0.00 0.00 57 1008.0
20260508175429 90 0 0.0 0.0 0.00 0.00 0.00 58 1008.0
20260508175240 92 0 0.0 0.0 0.00 0.00 0.00 55 1008.0
20260508175050 92 0 0.0 0.0 0.00 0.00 0.00 55 1008.0
20260508174858 91 0 0.0 0.0 0.00 0.00 0.00 56 1008.0
20260508174709 91 0 0.0 0.0 0.00 0.00 0.00 56 1008.0
20260508174519 91 0 0.0 0.0 0.00 0.00 0.00 56 1008.0
20260508174328 92 0 0.0 0.0 0.00 0.00 0.00 54 1008.0
20260508174137 92 0 0.0 0.0 0.00 0.00 0.00 55 1008.0
20260508173947 91 0 0.0 0.0 0.00 0.00 0.00 56 1008.0
20260508173756 92 0 0.0 0.0 0.00 0.00 0.00 55 1008.0
20260508173605 91 0 0.0 0.0 0.00 0.00 0.00 56 1008.0
20260508173415 92 0 0.0 0.0 0.00 0.00 0.00 54 1008.0
20260508173225 92 0 0.0 0.0 0.00 0.00 0.00 54 1008.0
20260508173031 90 0 0.0 0.0 0.00 0.00 0.00 57 1008.0
20260508172842 93 0 0.0 0.0 0.00 0.00 0.00 52 1008.0
20260508172653 93 0 0.0 0.0 0.00 0.00 0.00 52 1008.0
20260508172504 93 0 0.0 0.0 0.00 0.00 0.00 53 1009.0
20260508172314 94 0 0.0 0.0 0.00 0.00 0.00 51 1009.0
20260508172123 94 0 0.0 0.0 0.00 0.00 0.00 52 1009.0
20260508171933 93 0 0.0 0.0 0.00 0.00 0.00 52 1009.0
20260508171743 94 0 0.0 0.0 0.00 0.00 0.00 51 1009.0
20260508171418 93 0 0.0 0.0 0.00 0.00 0.00 52 1009.0
20260508171229 94 0 0.0 0.0 0.00 0.00 0.00 50 1009.0
20260508171039 94 0 0.0 0.0 0.00 0.00 0.00 51 1009.0
20260508170849 93 0 0.0 0.0 0.00 0.00 0.00 51 1009.0
20260508170700 94 0 0.0 0.0 0.00 0.00 0.00 50 1009.0
20260508170509 94 0 0.0 0.0 0.00 0.00 0.00 50 1009.0
20260508170320 95 0 0.0 0.0 0.00 0.00 0.00 50 1009.0
20260508170131 94 0 0.0 0.0 0.00 0.00 0.00 51 1009.0
20260508165942 94 0 0.0 0.0 0.00 0.00 0.00 50 1009.0
20260508165753 94 0 0.0 0.0 0.00 0.00 0.00 51 1009.0
20260508165604 93 0 0.0 0.0 0.00 0.00 0.00 51 1009.0
20260508165413 93 0 0.0 0.0 0.00 0.00 0.00 51 1009.0
20260508165222 93 0 0.0 0.0 0.00 0.00 0.00 52 1009.0
20260508165033 94 0 0.0 0.0 0.00 0.00 0.00 51 1009.0
20260508164843 95 0 0.0 0.0 0.00 0.00 0.00 50 1009.0
20260508164651 94 0 0.0 0.0 0.00 0.00 0.00 50 1009.0
20260508164501 93 0 0.0 0.0 0.00 0.00 0.00 52 1009.0
20260508164312 93 0 0.0 0.0 0.00 0.00 0.00 52 1009.0
20260508164123 94 0 0.0 0.0 0.00 0.00 0.00 50 1009.0
20260508163934 92 0 0.0 0.0 0.00 0.00 0.00 52 1009.0
20260508163744 93 0 0.0 0.0 0.00 0.00 0.00 52 1009.0
20260508163554 92 0 0.0 0.0 0.00 0.00 0.00 53 1009.0
20260508163403 92 0 0.0 0.0 0.00 0.00 0.00 53 1009.0
20260508163213 92 0 0.0 0.0 0.00 0.00 0.00 53 1009.0
20260508163024 90 0 0.0 0.0 0.00 0.00 0.00 55 1009.0
20260508162834 92 0 0.0 0.0 0.00 0.00 0.00 53 1009.0
20260508162455 92 0 0.0 0.0 0.00 0.00 0.00 53 1009.0